When you browse on this site, cookies collect data to enhance your experience and personalize the content and advertising you see.
Visit our Privacy Policy to learn more. By continuing to use the site, you agree to this use of cookies and data.
  • In Latvia
  • List of Countries
  • For 7 days
  • Water Temperature
  • Weather Map
  • Weather Widgets
  • user-avatar
    Login

    Hourly Weather Novoaleksandrovka

    Today, 6 June, Saturday

    Time Temperature Precipitation Wind Pressure Humidity
    00:00 +18°C° 0 mm 3 mps 760 mmHg 76%
    01:00 +18°C° 0 mm 3 mps 760 mmHg 77%
    02:00 +17°C° 0 mm 3 mps 761 mmHg 78%
    03:00 +17°C° 0 mm 2 mps 761 mmHg 79%
    04:00 +17°C° 0 mm 3 mps 761 mmHg 76%
    05:00 +18°C° 0 mm 3 mps 761 mmHg 73%
    06:00 +19°C° 0 mm 3 mps 761 mmHg 70%
    07:00 +20°C° 0 mm 3 mps 762 mmHg 64%
    08:00 +22°C° 0 mm 4 mps 762 mmHg 58%
    09:00 +23°C° 0 mm 4 mps 762 mmHg 52%
    10:00 +25°C° 0 mm 4 mps 762 mmHg 48%
    11:00 +26°C° 0 mm 4 mps 762 mmHg 43%
    12:00 +27°C° 0 mm 4 mps 762 mmHg 39%
    13:00 +27°C° 0 mm 4 mps 762 mmHg 39%
    14:00 +27°C° 0 mm 4 mps 762 mmHg 38%
    15:00 +28°C° 0 mm 4 mps 762 mmHg 38%
    16:00 +27°C° 0 mm 4 mps 762 mmHg 42%
    17:00 +26°C° 0 mm 4 mps 762 mmHg 45%
    18:00 +26°C° 0 mm 4 mps 762 mmHg 49%
    19:00 +24°C° 0 mm 3 mps 762 mmHg 54%
    20:00 +23°C° 0 mm 2 mps 762 mmHg 59%
    21:00 +21°C° 0 mm 1 mps 763 mmHg 65%
    22:00 +21°C° 0 mm 1 mps 762 mmHg 66%
    23:00 +20°C° 0 mm 1 mps 762 mmHg 67%

    Tomorrow, 7 June, Sunday

    Time Temperature Precipitation Wind Pressure Humidity
    00:00 +20°C° 0 mm 1 mps 762 mmHg 68%
    01:00 +20°C° 0 mm 1 mps 762 mmHg 68%
    02:00 +19°C° 0 mm 2 mps 762 mmHg 67%
    03:00 +19°C° 0 mm 2 mps 763 mmHg 67%
    04:00 +19°C° 0 mm 2 mps 763 mmHg 66%
    05:00 +20°C° 0 mm 2 mps 763 mmHg 65%
    06:00 +21°C° 0 mm 2 mps 763 mmHg 64%
    07:00 +24°C° 0 mm 2 mps 763 mmHg 60%
    08:00 +25°C° 0 mm 2 mps 763 mmHg 55%
    09:00 +27°C° 0 mm 2 mps 763 mmHg 51%
    10:00 +27°C° 0 mm 3 mps 763 mmHg 47%
    11:00 +28°C° 0 mm 3 mps 762 mmHg 43%
    12:00 +29°C° 0 mm 4 mps 762 mmHg 40%
    13:00 +29°C° 0 mm 4 mps 762 mmHg 40%
    14:00 +29°C° 0 mm 4 mps 762 mmHg 40%
    15:00 +30°C° 0 mm 4 mps 761 mmHg 40%
    16:00 +28°C° 0 mm 4 mps 761 mmHg 48%
    17:00 +27°C° 0 mm 3 mps 761 mmHg 56%
    18:00 +26°C° 0 mm 2 mps 761 mmHg 64%
    19:00 +24°C° 0.1 mm 2 mps 761 mmHg 70%
    20:00 +23°C° 0.1 mm 2 mps 761 mmHg 76%
    21:00 +21°C° 0.1 mm 1 mps 761 mmHg 82%
    22:00 +20°C° 0.1 mm 2 mps 761 mmHg 83%
    23:00 +20°C° 0.1 mm 2 mps 761 mmHg 83%

    Day after tomorrow, 8 June, Monday

    Time Temperature Precipitation Wind Pressure Humidity
    00:00 +20°C° 0.1 mm 2 mps 761 mmHg 84%
    01:00 +19°C° 0 mm 2 mps 761 mmHg 85%
    02:00 +20°C° 0 mm 1 mps 760 mmHg 86%
    03:00 +20°C° 0 mm 1 mps 760 mmHg 86%
    04:00 +20°C° 0.7 mm 1 mps 760 mmHg 84%
    05:00 +21°C° 0.7 mm 1 mps 760 mmHg 81%
    06:00 +22°C° 0.7 mm 1 mps 760 mmHg 79%
    07:00 +23°C° 0.1 mm 1 mps 760 mmHg 73%
    08:00 +24°C° 0.1 mm 1 mps 760 mmHg 68%
    09:00 +26°C° 0.1 mm 2 mps 760 mmHg 62%
    10:00 +27°C° 0.4 mm 1 mps 760 mmHg 57%
    11:00 +28°C° 0.4 mm 1 mps 760 mmHg 52%
    12:00 +28°C° 0.4 mm 1 mps 760 mmHg 48%
    13:00 +29°C° 0.3 mm 1 mps 760 mmHg 47%
    14:00 +29°C° 0.3 mm 1 mps 760 mmHg 46%
    15:00 +29°C° 0.3 mm 2 mps 759 mmHg 45%
    16:00 +29°C° 0 mm 2 mps 759 mmHg 46%
    17:00 +28°C° 0 mm 2 mps 759 mmHg 48%
    18:00 +28°C° 0 mm 2 mps 759 mmHg 49%
    19:00 +26°C° 0.3 mm 2 mps 759 mmHg 58%
    20:00 +24°C° 0.3 mm 3 mps 759 mmHg 66%
    21:00 +21°C° 0.3 mm 3 mps 760 mmHg 75%
    22:00 +21°C° 0 mm 3 mps 760 mmHg 79%
    23:00 +20°C° 0 mm 3 mps 760 mmHg 84%

    9 June, Tuesday

    Time Temperature Precipitation Wind Pressure Humidity
    00:00 +19°C° 0 mm 2 mps 760 mmHg 88%
    01:00 +19°C° 0.2 mm 3 mps 760 mmHg 89%
    02:00 +18°C° 0.2 mm 3 mps 760 mmHg 89%
    03:00 +18°C° 0.2 mm 3 mps 760 mmHg 89%
    04:00 +19°C° 0.1 mm 3 mps 760 mmHg 85%
    05:00 +20°C° 0.1 mm 4 mps 760 mmHg 81%
    06:00 +20°C° 0.1 mm 5 mps 760 mmHg 76%
    07:00 +22°C° 0.2 mm 5 mps 761 mmHg 67%
    08:00 +24°C° 0.2 mm 6 mps 761 mmHg 57%
    09:00 +26°C° 0.2 mm 6 mps 761 mmHg 47%
    10:00 +27°C° 0.6 mm 7 mps 761 mmHg 47%
    11:00 +27°C° 0.6 mm 7 mps 761 mmHg 46%
    12:00 +28°C° 0.6 mm 8 mps 761 mmHg 45%
    13:00 +29°C° 0.3 mm 8 mps 760 mmHg 43%
    14:00 +29°C° 0.3 mm 8 mps 760 mmHg 40%
    15:00 +31°C° 0.3 mm 8 mps 760 mmHg 38%
    16:00 +31°C° 0 mm 8 mps 760 mmHg 38%
    17:00 +30°C° 0 mm 7 mps 759 mmHg 38%
    18:00 +30°C° 0 mm 6 mps 759 mmHg 39%
    19:00 +29°C° 0 mm 6 mps 760 mmHg 38%
    20:00 +28°C° 0 mm 7 mps 760 mmHg 37%
    21:00 +27°C° 0 mm 7 mps 760 mmHg 36%
    22:00 +26°C° 0.1 mm 7 mps 760 mmHg 37%
    23:00 +24°C° 0.1 mm 7 mps 760 mmHg 38%

    10 June, Wednesday

    Time Temperature Precipitation Wind Pressure Humidity
    00:00 +24°C° 0.1 mm 7 mps 761 mmHg 39%
    01:00 +24°C° 0 mm 7 mps 761 mmHg 37%
    02:00 +24°C° 0 mm 7 mps 761 mmHg 35%
    03:00 +24°C° 0 mm 7 mps 761 mmHg 33%
    04:00 +24°C° 0 mm 7 mps 762 mmHg 36%
    05:00 +24°C° 0 mm 6 mps 762 mmHg 39%
    06:00 +23°C° 0 mm 6 mps 763 mmHg 42%
    07:00 +26°C° 0 mm 6 mps 763 mmHg 39%
    08:00 +28°C° 0 mm 6 mps 763 mmHg 35%
    09:00 +30°C° 0 mm 7 mps 763 mmHg 31%
    10:00 +33°C° 0 mm 7 mps 763 mmHg 29%
    11:00 +34°C° 0 mm 7 mps 763 mmHg 26%
    12:00 +35°C° 0 mm 7 mps 763 mmHg 23%
    13:00 +35°C° 0 mm 7 mps 763 mmHg 23%
    14:00 +35°C° 0 mm 7 mps 763 mmHg 23%
    15:00 +36°C° 0 mm 7 mps 762 mmHg 23%
    16:00 +34°C° 0 mm 7 mps 762 mmHg 27%
    17:00 +33°C° 0 mm 6 mps 762 mmHg 31%
    18:00 +32°C° 0 mm 6 mps 762 mmHg 35%
    19:00 +30°C° 0 mm 6 mps 763 mmHg 35%
    20:00 +28°C° 0 mm 6 mps 763 mmHg 34%
    21:00 +27°C° 0 mm 6 mps 763 mmHg 34%
    22:00 +26°C° 0 mm 5 mps 763 mmHg 36%
    23:00 +26°C° 0 mm 5 mps 763 mmHg 37%

    11 June, Thursday

    Time Temperature Precipitation Wind Pressure Humidity
    00:00 +25°C° 0 mm 5 mps 763 mmHg 38%
    01:00 +23°C° 0 mm 4 mps 763 mmHg 39%
    02:00 +23°C° 0 mm 4 mps 763 mmHg 40%
    03:00 +22°C° 0 mm 4 mps 763 mmHg 41%
    04:00 +23°C° 0 mm 4 mps 763 mmHg 43%
    05:00 +23°C° 0 mm 4 mps 763 mmHg 45%
    06:00 +25°C° 0 mm 3 mps 763 mmHg 48%
    07:00 +27°C° 0 mm 4 mps 763 mmHg 43%
    08:00 +29°C° 0 mm 4 mps 763 mmHg 39%
    09:00 +32°C° 0 mm 4 mps 763 mmHg 34%
    10:00 +33°C° 0 mm 4 mps 762 mmHg 30%
    11:00 +34°C° 0 mm 4 mps 762 mmHg 27%
    12:00 +36°C° 0 mm 5 mps 762 mmHg 23%
    13:00 +36°C° 0 mm 4 mps 762 mmHg 22%
    14:00 +36°C° 0 mm 4 mps 761 mmHg 22%
    15:00 +36°C° 0 mm 4 mps 761 mmHg 21%
    16:00 +35°C° 0 mm 4 mps 761 mmHg 25%
    17:00 +34°C° 0 mm 4 mps 760 mmHg 28%
    18:00 +33°C° 0 mm 4 mps 760 mmHg 32%
    19:00 +32°C° 0 mm 4 mps 760 mmHg 32%
    20:00 +29°C° 0 mm 4 mps 760 mmHg 33%
    21:00 +27°C° 0 mm 4 mps 760 mmHg 34%
    22:00 +27°C° 0 mm 4 mps 760 mmHg 36%
    23:00 +26°C° 0 mm 4 mps 760 mmHg 38%
    Show more